Simultaneous Nadir Overpasses (SNOs) Predictions

Prediction of SNOs between METOP-A and NPP Satellite Orbit:

Table of predicted SNOs for the next 14.0 days since TLE Epoch: 6/12/2016
Index Date (METOP-A) Time (METOP-A) Lat,Lon (METOP-A) SZA (METOP-A ) Date (NPP) Time (NPP) Lat,Lon (NPP) SZA (NPP ) Distance(km) Time Diff (sec)
1 06/22/2016 02:59:55 73.58, 128.40 50.21 06/22/2016 02:58:48 73.56, 125.65 50.34 86.54 67
2 06/22/2016 03:50:39 -73.48, -64.53 129.89 06/22/2016 03:49:30 -73.46, -66.81 129.77 72.32 69
3 06/22/2016 04:41:23 73.26, 102.33 49.93 06/22/2016 04:40:12 73.26, 100.94 50.02 44.54 71
4 06/22/2016 05:32:07 -73.15, -90.58 130.17 06/22/2016 05:30:54 -73.17, -91.53 130.09 30.56 73
5 06/22/2016 06:22:50 72.99, 76.39 49.68 06/22/2016 06:21:36 72.97, 76.21 49.69 6.46 74
6 06/22/2016 07:13:33 -72.93,-116.40 130.37 06/22/2016 07:12:19 -72.92,-116.38 130.36 1.42 74
7 06/22/2016 08:04:13 72.92, 50.90 49.62 06/22/2016 08:03:05 72.92, 50.93 49.64 1.23 68
8 06/22/2016 08:54:55 -72.91,-141.78 130.39 06/22/2016 08:53:49 -72.93,-141.76 130.36 1.99 66
9 06/22/2016 09:45:34 72.94, 25.62 49.65 06/22/2016 09:44:35 72.93, 25.54 49.65 3.16 59
10 06/22/2016 10:36:16 -72.94,-167.06 130.36 06/22/2016 10:35:19 -72.93,-167.15 130.35 2.89 57
11 06/22/2016 11:26:56 72.92, 0.24 49.63 06/22/2016 11:26:05 72.93, 0.15 49.66 3.00 51
12 06/22/2016 12:17:38 -72.92, 167.55 130.38 06/22/2016 12:16:48 -72.89, 167.57 130.40 3.38 50
13 06/22/2016 13:08:18 72.90, -25.15 49.61 06/22/2016 13:07:34 72.89, -25.13 49.61 1.45 44
14 06/22/2016 13:59:00 -72.90, 142.17 130.40 06/22/2016 13:58:18 -72.89, 142.18 130.39 0.65 42
15 06/22/2016 14:49:40 72.88, -50.53 49.59 06/22/2016 14:49:04 72.90, -50.51 49.62 1.97 36
16 06/22/2016 15:40:22 -72.87, 116.78 130.41 06/22/2016 15:39:48 -72.90, 116.80 130.38 2.78 34
17 06/22/2016 16:31:01 72.91, -75.81 49.62 06/22/2016 16:30:34 72.90, -75.90 49.62 2.93 27
18 06/22/2016 17:21:43 -72.90, 91.50 130.39 06/22/2016 17:21:18 -72.90, 91.41 130.38 3.01 25
19 06/22/2016 18:12:23 72.89,-101.20 49.60 06/22/2016 18:12:03 72.86,-101.18 49.58 3.35 20
20 06/22/2016 19:03:05 -72.88, 66.12 130.41 06/22/2016 19:02:47 -72.86, 66.13 130.42 2.48 18
21 06/22/2016 19:53:45 72.87,-126.58 49.58 06/22/2016 19:53:33 72.86,-126.57 49.58 0.60 12
22 06/22/2016 20:44:27 -72.86, 40.73 130.42 06/22/2016 20:44:17 -72.87, 40.74 130.42 0.68 10
23 06/22/2016 21:35:06 72.84,-151.97 49.57 06/22/2016 21:35:02 72.87,-151.95 49.59 2.89 4
24 06/22/2016 22:25:48 -72.84, 15.35 130.44 06/22/2016 22:25:46 -72.87, 15.36 130.41 3.63 2
25 06/22/2016 23:16:27 72.87,-177.25 49.59 06/22/2016 23:16:32 72.88,-177.34 49.60 3.05 5
26 06/23/2016 00:07:09 -72.87, -9.93 130.41 06/23/2016 00:07:16 -72.88, -10.03 130.40 3.40 7
27 06/23/2016 00:57:49 72.85, 157.37 49.58 06/23/2016 00:58:01 72.83, 157.38 49.55 2.32 12
28 06/23/2016 01:48:31 -72.85, -35.31 130.43 06/23/2016 01:48:45 -72.83, -35.31 130.45 1.56 14
29 06/23/2016 02:39:11 72.83, 131.98 49.56 06/23/2016 02:39:31 72.84, 131.99 49.56 0.86 20
30 06/23/2016 03:29:53 -72.83, -60.70 130.45 06/23/2016 03:30:15 -72.84, -60.70 130.44 1.48 22
31 06/23/2016 04:20:32 72.86, 106.70 49.58 06/23/2016 04:21:01 72.84, 106.61 49.57 3.67 29
32 06/23/2016 05:11:14 -72.85, -85.98 130.42 06/23/2016 05:11:45 -72.84, -86.08 130.43 3.60 31
33 06/23/2016 06:01:54 72.84, 81.32 49.57 06/23/2016 06:02:31 72.85, 81.22 49.58 3.50 37
34 06/23/2016 06:52:36 -72.83,-111.36 130.44 06/23/2016 06:53:14 -72.80,-111.36 130.48 3.69 38
35 06/23/2016 07:43:16 72.81, 55.93 49.55 06/23/2016 07:44:00 72.80, 55.94 49.53 1.28 44
36 06/23/2016 08:33:58 -72.81,-136.75 130.46 06/23/2016 08:34:44 -72.81,-136.75 130.47 0.67 46
37 06/23/2016 09:24:38 72.79, 30.55 49.53 06/23/2016 09:25:30 72.81, 30.55 49.54 1.81 52
38 06/23/2016 10:15:20 -72.79,-162.13 130.47 06/23/2016 10:16:14 -72.81,-162.14 130.47 2.38 54
39 06/23/2016 11:05:59 72.82, 5.27 49.56 06/23/2016 11:07:00 72.82, 5.16 49.54 3.52 61
40 06/23/2016 11:56:42 -72.77, 172.48 130.49 06/23/2016 11:57:43 -72.77, 172.58 130.51 3.24 61
41 06/23/2016 12:47:21 72.80, -20.12 49.54 06/23/2016 12:48:29 72.77, -20.12 49.50 3.33 68
42 06/23/2016 13:38:03 -72.80, 147.20 130.46 06/23/2016 13:39:13 -72.77, 147.20 130.51 2.81 70
43 06/23/2016 14:28:45 72.68, -45.71 49.43 06/23/2016 14:29:58 72.73, -45.40 49.45 11.68 73
44 06/23/2016 15:19:28 -72.62, 121.51 130.62 06/23/2016 15:20:41 -72.68, 122.02 130.61 17.93 73
45 06/23/2016 16:10:12 72.40, -71.61 49.19 06/23/2016 16:11:22 72.43, -70.16 49.12 48.61 70
46 06/23/2016 17:00:55 -72.35, 95.62 130.85 06/23/2016 17:02:05 -72.38, 97.25 130.93 55.03 70
47 06/23/2016 17:51:40 72.07, -97.59 48.91 06/23/2016 17:52:46 72.13, -94.95 48.80 90.39 66
48 06/23/2016 18:42:23 -72.02, 69.64 131.14 06/23/2016 18:43:29 -72.08, 72.45 131.26 96.62 66
